Location: Newark
(48.1500°N, 2.9667°W)
Time: 18:41:18
(UTC+00:00)

Transit 2A - Pass Details

Date: 27 January 2020
Orbit: 599 x 959 km, 66.7° (Epoch: 25 February)

Event Time Altitude Azimuth Distance (km) Brightness Sun altitude
Rises 05:22:58 0° 315° (NW) 3,004 - -23.9°
Reaches altitude 10° 05:25:31 10° 302° (WNW) 2,138 - -23.5°
Maximum altitude 05:29:26 25° 248° (WSW) 1,442 - -22.8°
Exits shadow 05:32:28 15° 203° (SSW) 1,949 7.9 -22.3°
Drops below altitude 10° 05:33:40 10° 194° (SSW) 2,311 8.4 -22.1°
Sets 05:36:32 0° 182° (S) 3,304 9.3 -21.6°
